0 HST 1 20580U 90037B 26094.64776769 .00011124 00000-0 36493-3 0 9994 2 20580 28.4724 222.8665 0002193 61.0619 299.0197 15.29923140777298 0 ISS (ZARYA) 1 25544U 98067A 26095.03712624 .00009326 00000-0 17854-3 0 9995 2 25544 51.6327 302.0967 0006295 273.6206 86.4063 15.48778120560417 0 CXO 1 25867U 99040B 26097.97432086 .00000867 00000-0 00000-0 0 9994 2 25867 55.0160 118.7491 7949849 310.6166 0.0374 0.37800700 17053